Regional Weather Roundup
Issued by NWS

Home | Current Version | Previous Version | Text Only | Print | Product List | Glossary Off
Versions: 1 2 3 4 5 6 7 8 9 10 11 12 13 14 15 16 17 18 19 20 21 22 23 24 25 26 27 28 29 30 31 32 33 34 35 36 37 38 39 40 41 42 43 44 45 46 47 48 49 50

000
ASUS43 KMPX 270110
RWRMN
WEATHER ROUNDUP FOR MINNESOTA
NATIONAL WEATHER SERVICE TWIN CITIES/CHANHASSEN MN
800 PM CDT TUE MAY 26 2015


NOTE: "FAIR" INDICATES FEW OR NO CLOUDS BELOW 12,000 FEET WITH NO
SIGNIFICANT WEATHER AND/OR OBSTRUCTIONS TO VISIBILITY. N/A MEANS
CURRENT SKY AND/OR WEATHER CONDITIONS ARE NOT AVAILABLE.

MNZ060>063-068>070-270200-
   Twin Cities Metro

CITY           SKY/WX    TMP DP  RH WIND       PRES   REMARKS
TWIN CITIES    LGT RAIN  58  56  93 NW8       29.77R
ST PAUL        LGT RAIN  58  56  93 NW6       29.77R
CRYSTAL        CLOUDY    58  56  93 N5        29.76S
BLAINE         DRIZZLE   59  57  94 N7        29.76F
LAKEVILLE      RAIN      57  55  94 NW5       29.77S
EDEN PRAIRIE   LGT RAIN  58  56  93 NW5       29.77R
SOUTH ST PAUL  LGT RAIN  58  57  96 NW8       29.76S
LAKE ELMO      LGT RAIN  57  55  94 N7        29.76S
$$
MNZ001>005-007-008-013>017-022>024-027-028-270200-
   Northwest Minnesota

CITY           SKY/WX    TMP DP  RH WIND       PRES   REMARKS
BEMIDJI        CLOUDY    70  53  54 S5        29.76F
HALLOCK        PTSUNNY   81  45  28 CALM      29.71S
ROSEAU         PTCLDY    75  54  46 S3        29.72
WARROAD        HAZE      75  54  46 W3        29.73S VSB 1
THIEF RVR FALL MOCLDY    75  54  46 S6        29.75R
CROOKSTON      FAIR      73  55  53 CALM      29.74R
FOSSTON        MOCLDY    72  54  53 SW8       29.77S
DETROIT LAKES  CLOUDY    70  54  56 W5        29.79F
MOORHEAD       MOCLDY    72  57  60 SW3       29.77S
PARK RAPIDS    CLOUDY    71  54  54 S3        29.78S
MAHNOMEN       FAIR      71  55  56 SW5       29.76F
$$
MNZ006-009>011-018-025>026-270200-
   North Central Minnesota

CITY           SKY/WX    TMP DP  RH WIND       PRES   REMARKS
BAUDETTE       PTCLDY    74  53  48 SW10      29.73S
FLAG ISLAND    LGT RAIN  64  55  72 S6        29.71S
INTL FALLS     MOCLDY    73  50  44 CALM      29.74S
WASKISH        MOCLDY    72  57  60 CALM      29.75S
BIG FORK       CLOUDY    68  57  68 CALM      29.77S
LONGVILLE      CLOUDY    66  55  68 CALM      29.77F
GRAND RAPIDS   CLOUDY    64  54  68 SE7       29.79S
CRANE LAKE     CLOUDY    66  55  68 CALM      29.78S
COOK           CLOUDY    66  54  63 CALM      29.77F
WALKER         FAIR      67  54  63 CALM      29.77F
$$
MNZ012-019>021-037-270200-
   Northeast Minnesota

CITY           SKY/WX    TMP DP  RH WIND       PRES   REMARKS
DULUTH         CLOUDY    58  50  75 N6        29.78F
HIBBING        CLOUDY    64  50  60 CALM      29.78S
EVELETH        CLOUDY   N/A N/A N/A CALM      29.79F
DULUTH HARBOR  CLOUDY    50  48  93 SE3       29.78F
TWO HARBORS    CLOUDY    61  54  77 CALM      29.76F
GRAND MARAIS     N/A     52  50  93 CALM      29.76F
G MARAIS ARPRT CLOUDY    54  48  82 CALM      29.80F
$$
MNZ029>031-032-039>041-046>048-054>057-064-270200-
   West Central Minnesota

CITY           SKY/WX    TMP DP  RH WIND       PRES   REMARKS
FERGUS FALLS   CLOUDY    70  57  64 SW3       29.79S
WHEATON        CLOUDY    68  55  64 SE3       29.81S
MORRIS         CLOUDY    70  57  64 W3        29.79S
ALEXANDRIA     CLOUDY    66  52  60 CALM      29.81S
ELBOW LAKE     FAIR      68  56  65 W5        29.79S
WADENA         CLOUDY    68  55  64 CALM      29.79S
GLENWOOD       CLOUDY    64  55  72 CALM      29.81S
APPLETON       CLOUDY    70  57  64 CALM      29.80R
BENSON         CLOUDY    66  57  72 S5        29.80S
ORTONVILLE     CLOUDY    68  54  60 CALM      29.81R
MADISON        CLOUDY    66  55  68 NW5       29.81R
WILLMAR        FAIR      63  57  82 CALM      29.81F
$$
MNZ033>034-036-042>043-049>051-058-059-270200-
   Central Minnesota

CITY           SKY/WX    TMP DP  RH WIND       PRES   REMARKS
ST CLOUD       CLOUDY    60  56  86 CALM      29.78S
SAUK CENTRE    FAIR      63  58  84 S3        29.80S
PAYNESVILLE    CLOUDY    58  55  89 CALM      29.80S
AITKIN         CLOUDY    64  54  68 CALM      29.78S
PINE RIVER     CLOUDY    64  57  77 SE3       29.82F
BRAINERD       CLOUDY    64  54  69 CALM      29.79S
STAPLES        CLOUDY    64  54  68 S3        29.79S
LONG PRAIRIE   FAIR      63  54  72 CALM      29.80S
LITTLE FALLS   CLOUDY    61  55  82 CALM      29.79S
LITCHFIELD     CLOUDY    61  61 100 CALM      29.80S
BUFFALO        CLOUDY    58  55  89 W3        29.79S
MAPLE LAKE     CLOUDY    59  57  95 CALM      29.80S
$$
MNZ037-044-045-052-053-270200-
   East Central Minnesota

CITY           SKY/WX    TMP DP  RH WIND       PRES   REMARKS
PRINCETON      CLOUDY    61  55  82 W3        29.78S
MORA           CLOUDY    59  50  72 N3        29.79S
CAMBRIDGE      CLOUDY    61  54  77 CALM      29.75S
RUSH CITY      CLOUDY    58  56  91 CALM      29.76F
MOOSE LAKE     CLOUDY    59  54  82 N3        29.76F
HINCKLEY       FAIR      61  54  77 N3        29.76F
CLOQUET        CLOUDY    59  48  67 N5        29.79S
MCGREGOR       CLOUDY    61  52  72 SE3       29.79S
$$
MNZ071>073-080-081-089-090-097-098-270200-
   Southwest Minnesota

CITY           SKY/WX    TMP DP  RH WIND       PRES   REMARKS
MONTEVIDEO     CLOUDY    64  57  77 CALM      29.81S
GRANITE FALLS  CLOUDY    63  56  79 CALM      29.83R
CANBY          CLOUDY    65  57  74 NW3       29.83R
MARSHALL       CLOUDY    63  54  72 CALM      29.81S
REDWOOD FALLS  CLOUDY    61  56  83 CALM      29.81R
OLIVIA         CLOUDY    59  52  77 CALM      29.80S
PIPESTONE      CLOUDY    66  54  63 N6        29.83S
WINDOM         CLOUDY    59  55  88 CALM      29.83R
WORTHINGTON    CLOUDY    61  55  82 N6        29.83S
JACKSON        CLOUDY    59  55  88 N6        29.83S
TRACY          CLOUDY    61  57  87 CALM      29.83R
SLAYTON        CLOUDY    60  58  91 CALM      29.84R
$$
MNZ065>067-074>077-082>085-091>093-270200-
   South Central Minnesota

CITY           SKY/WX    TMP DP  RH WIND       PRES   REMARKS
MANKATO        CLOUDY    57  55  94 NW6       29.79S
NEW ULM        CLOUDY    57  57 100 NW5       29.80S
ST JAMES       CLOUDY    59  57  94 NW5       29.82R
FAIRMONT       CLOUDY    57  52  82 NW8       29.81S
GLENCOE        CLOUDY    59  58  97 NW6       29.79R
FARIBAULT      DRIZZLE   57  57 100 CALM      29.78S
OWATONNA       LGT RAIN  59  55  88 W6        29.78S
WASECA         LGT RAIN  55  54  94 NW6       29.80R
ALBERT LEA     CLOUDY    61  57  88 NW7       29.79S
$$
MNZ078>079-086>088-094>096-270200-
   Southeast Minnesota

CITY           SKY/WX    TMP DP  RH WIND       PRES   REMARKS
ROCHESTER      LGT RAIN  59  58  96 NW12      29.79R FOG
RED WING       DRIZZLE   59  57  94 NW5       29.74R
STANTON        DRIZZLE   60  56  88 NW5       29.76R
DODGE CENTER   LGT RAIN  59  57  94 NW6       29.78R
WINONA         CLOUDY    61  59  94 NW6       29.73R
AUSTIN         CLOUDY    59  55  88 NW6       29.79R
PRESTON        CLOUDY    59  57  91 NW12      29.78R
$$
ABBREVIATIONS USED IN REMARKS
   TC - TEMPERATURES IN CELSIUS
  WCI - WIND CHILL INDEX
   HX - HEAT INDEX
  VSB - VISIBILITY
$$



USA.gov is the U.S. government's official web portal to all federal, state and local government web resources and services.